This is the latest recevied weather packets stored in our database for station/object KI5RAB. If no packets are shown the sender has not sent any weather packets the latest 10 day(s).
| Time | Temp. | Humidity | Pressure | Rain* | Wind** | Luminosity | Snow |
|---|---|---|---|---|---|---|---|
| 1777485532 | 26.11° C | 85% | 1015 hPa | 0 mm | - | 143 W/m² | - |
| 1777485229 | 26.11° C | 86% | 1015.2 hPa | 0 mm | - | 151 W/m² | - |
| 1777484925 | 26.11° C | 86% | 1015.1 hPa | 0 mm | - | 140 W/m² | - |
| 1777484622 | 26.11° C | 86% | 1015.2 hPa | 0 mm | - | 129 W/m² | - |
| 1777484318 | 26.11° C | 86% | 1015.5 hPa | 0 mm | - | 107 W/m² | - |
| 1777484014 | 26.11° C | 86% | 1015.6 hPa | 0 mm | - | 108 W/m² | - |
| 1777483712 | 26.11° C | 86% | 1015.6 hPa | 0 mm | - | 94 W/m² | - |
| 1777483407 | 26.11° C | 86% | 1015.6 hPa | 0 mm | - | 87 W/m² | - |
| 1777483102 | 26.11° C | 86% | 1015.6 hPa | 0 mm | - | 91 W/m² | - |
| 1777482800 | 25.56° C | 87% | 1015.4 hPa | 0 mm | - | 103 W/m² | - |
| 1777482495 | 25.56° C | 87% | 1015.2 hPa | 0 mm | - | 92 W/m² | - |
| 1777482193 | 25.56° C | 87% | 1015.1 hPa | 0 mm | - | 69 W/m² | - |
| 1777481890 | 25.56° C | 87% | 1015 hPa | 0 mm | - | 82 W/m² | - |
| 1777481588 | 26.11° C | 87% | 1015.1 hPa | 0 mm | - | 86 W/m² | - |
| 1777481285 | 26.11° C | 87% | 1015.5 hPa | 0 mm | - | 97 W/m² | - |
| 1777480981 | 26.11° C | 86% | 1015.4 hPa | 0 mm | - | 106 W/m² | - |
| 1777480677 | 25.56° C | 87% | 1015.4 hPa | 0 mm | - | 122 W/m² | - |
| 1777480375 | 26.11° C | 86% | 1015.1 hPa | 0 mm | - | 80 W/m² | - |
| 1777480070 | 25.56° C | 86% | 1015.2 hPa | 0 mm | - | 112 W/m² | - |
| 1777479767 | 25.56° C | 87% | 1015.5 hPa | 0 mm | - | 105 W/m² | - |
| 1777479465 | 25.56° C | 87% | 1015.4 hPa | 0 mm | - | 111 W/m² | - |
| 1777479161 | 25.56° C | 87% | 1015.5 hPa | 0 mm | - | 90 W/m² | - |
| 1777478858 | 25.56° C | 88% | 1015.5 hPa | 0 mm | - | 87 W/m² | - |
| 1777478554 | 25.56° C | 88% | 1015 hPa | 0 mm | - | 92 W/m² | - |
| 1777478252 | 25.56° C | 87% | 1015.4 hPa | 0 mm | - | 83 W/m² | - |
* Rain latest hour (hover to see other rain measurements)
** Current wind speed in m/s (hover to see current wind gust speed)